Regional Weather Roundup
Issued by NWS

Home | Current Version | Previous Version | Text Only | Print | Product List | Glossary Off
Versions: 1 2 3 4 5 6 7 8 9 10 11 12 13 14 15 16 17 18 19 20 21 22 23 24 25 26 27 28 29 30 31 32 33 34 35 36 37 38 39 40 41 42 43 44 45 46 47 48 49 50

000
ASUS43 KOAX 310210
RWRNE

WEATHER ROUNDUP FOR NEBRASKA
NATIONAL WEATHER SERVICE OMAHA NE
900 PM CDT SUN AUG 30 2015

NOTES: SATELLITE DATA IS BEING USED TO AUGMENT CLOUD COVER ABOVE
       12000 FEET.
       "FAIR" INDICATES FEW OR NO CLOUDS BELOW 12,000 FEET WITH NO
       SIGNIFICANT WEATHER AND/OR OBSTRUCTIONS TO VISIBILITY.

  * THESE STATIONS DO NOT REPORT WEATHER SUCH AS RAIN...SNOW OR FOG.

NEZ001>004-019>022-054>056-310300-
NEBRASKA PANHANDLE

CITY           SKY/WX    TMP DP  RH WIND       PRES   REMARKS
SCOTTSBLUFF    MOCLDY    84  49  29 NW9       29.84R
ALLIANCE       CLEAR     82  48  30 S15       29.84R
CHADRON        PTCLDY    87  45  23 W9        29.78R
KIMBALL        PTCLDY    75  40  27 SW3       29.92R
SIDNEY         CLEAR     83  49  30 S16       29.91R
$$

NEZ057>060-069>072-079>082-310300-
SOUTHWEST NEBRASKA

CITY           SKY/WX    TMP DP  RH WIND       PRES   REMARKS
NORTH PLATTE   CLEAR     69  57  65 E9        29.89R
IMPERIAL       CLEAR     80  37  21 S15       29.90R
LEXINGTON      CLEAR     73  62  69 SE13      29.93R
MCCOOK         CLEAR     77  42  28 SE10      29.91R
OGALLALA       CLEAR     81  41  24 S14       29.87R
$$

NEZ005>010-023>029-035>040-094-310300-
NORTH CENTRAL NEBRASKA

CITY           SKY/WX    TMP DP  RH WIND       PRES   REMARKS
VALENTINE      PTCLDY    82  52  35 S18       29.80R
AINSWORTH      PTCLDY    78  58  50 S15       29.85R
BROKEN BOW     CLEAR     74  61  63 S15G25    29.91R
O`NEILL        CLEAR     72  64  75 S15G22    29.88S
ORD            CLEAR     72  63  73 S8        29.91R
THEDFORD       CLEAR     79  61  54 S20G26    29.87S
$$

NEZ041-046>049-061>064-073>077-083>087-310300-
SOUTH CENTRAL NEBRASKA

CITY           SKY/WX    TMP DP  RH WIND       PRES   REMARKS
GRAND ISLAND   CLEAR     70  65  84 S14       29.95R
AURORA         CLEAR     69  67  93 S9        29.96R
HASTINGS       CLEAR     70  64  81 S13       29.96R
HEBRON         CLEAR     67  63  87 CALM      29.97R
HOLDREGE       CLEAR     68  60  74 SE12      29.95R
KEARNEY *      CLEAR     70  61  73 SE15      29.94S
YORK           PTCLDY    68  66  94 S7        29.97R
$$

NEZ011>018-030>034-042>045-310300-
NORTHEAST NEBRASKA

CITY           SKY/WX    TMP DP  RH WIND       PRES   REMARKS
NORFOLK        CLEAR     70  66  87 S14       29.93R
ALBION         CLEAR     68  64  88 SE7       29.94R
BLAIR          CLEAR     68  65  89 S5        29.96S
COLUMBUS *     CLEAR    N/A N/A N/A S3        29.95R
FREMONT        CLEAR     69  66  90 SE6       29.96S
TEKAMAH        CLEAR     67  65  93 S5        29.95R
WAYNE          CLEAR     67  66  95 S5        29.94R
$$

NEZ050>053-065>068-078-088>093-310300-
SOUTHEAST NEBRASKA

CITY           SKY/WX    TMP DP  RH WIND       PRES   REMARKS
LINCOLN        CLEAR     71  67  87 S5        29.97R
OMAHA EPPLEY   PTCLDY    71  67  87 SE5       29.96R
BEATRICE       CLEAR     70  67  88 CALM      29.97R
FALLS CITY     CLEAR     71  69  93 CALM      29.96R
NEBRASKA CITY  CLEAR     70  68  92 S3        29.97R
PLATTSMOUTH    CLEAR     69  66  90 SE5       29.97R
$$

NEZ044-045-051>053-067-310300-
OMAHA AREA

CITY           SKY/WX    TMP DP  RH WIND       PRES   REMARKS
OMAHA EPPLEY   PTCLDY    71  67  87 SE5       29.96R
BLAIR          CLEAR     68  65  89 S5        29.96S
FREMONT        CLEAR     69  66  90 SE6       29.96S
MILLARD        CLEAR     69  67  95 CALM      29.96R FOG
OFFUTT AFB     CLEAR     64  64 100 CALM      29.95S
PLATTSMOUTH    CLEAR     69  66  90 SE5       29.97R
WAHOO          FAIR      66  64  95 SE6       29.96R
$$




USA.gov is the U.S. government's official web portal to all federal, state and local government web resources and services.